Regional Weather Roundup
Issued by NWS

Home | Current Version | Previous Version | Graphics & Text | Print | Product List | Glossary On
Versions: 1 2 3 4 5 6 7 8 9 10 11 12 13 14 15 16 17 18 19 20 21 22 23 24 25 26 27 28 29 30 31 32 33 34 35 36 37 38 39 40 41 42 43 44 45 46 47 48 49 50
000
ASUS45 KBOU 262207
RWRCO

WEATHER ROUNDUP FOR COLORADO
NATIONAL WEATHER SERVICE DENVER/BOULDER CO
400 PM MDT THU MAR 26 2015

NOTE: "FAIR" INDICATES FEW OR NO CLOUDS BELOW 12000 FEET WITH NO
SIGNIFICANT WEATHER AND/OR OBSTRUCTIONS TO VISIBILITY.

COZ001>005-013-030-031-262300-
...NORTHWEST COLORADO...

CITY           SKY/WX    TMP DP  RH WIND       PRES   REMARKS
CRAIG          SUNNY     56  25  30 W9G16     30.26F
HAYDEN         MOSUNNY   52  21  30 W12       30.27F
MEEKER         SUNNY     55  23  28 SW10      30.27F
MOUNT WERNER   NOT AVBL
STEAMBOAT SPGS MOSUNNY   45  24  44 CALM      30.28F
WALDEN         CLOUDY    41  23  48 W12       30.26S
$$

COZ006>008-011-262300-
...WEST CENTRAL VALLEYS...

CITY           SKY/WX    TMP DP  RH WIND       PRES   REMARKS
GRAND JUNCTION SUNNY     60  18  19 CALM      30.24F
MONTROSE       SUNNY     60  18  19 NW9       30.28F
EAGLE          SUNNY     55  19  24 S13       30.26F
RIFLE          SUNNY     60  22  23 CALM      30.23F
DELTA          NOT AVBL
NUCLA          SUNNY     63  18  17 W7        30.29F
$$

COZ017>023-064>068-262300-
...SOUTHWEST COLORADO...

CITY           SKY/WX    TMP DP  RH WIND       PRES   REMARKS
DURANGO        SUNNY     59  15  18 SW14G20   30.23F
CORTEZ         SUNNY     67  16  14 N14G21    30.23S
PAGOSA SPRINGS SUNNY     57   8  14 SW10G21   30.25F
TELLURIDE      SUNNY     49  17  28 W13G22    30.35F
WOLF CREEK PAS CLOUDY    32  12  43 SW14      30.41S WCI  22
$$

COZ009-010-012-014-032>034-037-058>063-262300-
...CENTRAL COLORADO...

CITY           SKY/WX    TMP DP  RH WIND       PRES   REMARKS
ASPEN          MOSUNNY   50  23  34 N10       30.27F
BUENA VISTA    MOSUNNY   54  15  21 NW17G23   30.19F
COPPER MTN     PTSUNNY   34  19  55 W14G28    30.36R WCI  24
BERTHOUD PASS  CLOUDY    19  12  73 MISG      30.32R HAZE
COTTONWOOD PAS MOSUNNY   50   9  18 W10G21    30.26F
GUNNISON       SUNNY     52  16  24 NE6       30.27F
KREMMLING      MOSUNNY   50  18  27 NW13      30.27F
LEADVILLE      MOSUNNY   39  18  42 W17G28    30.27F
SALIDA         MOSUNNY   60  14  16 NW9G18    30.24F
SUNLIGHT       SUNNY     37  23  56 CALM      30.41S
WILKERSON PASS MOSUNNY   36  16  44 N9G25     30.31S
$$

COZ069>075-262300-
...SAN LUIS VALLEY/SANGRE DE CRISTO MOUNTAINS...

CITY           SKY/WX    TMP DP  RH WIND       PRES   REMARKS
ALAMOSA        SUNNY     56  10  16 CALM      30.20F
LA VETA PASS   SUNNY     45  16  31 SW7G18    30.27S
SAGUACHE       MOSUNNY   55  16  21 NW15G23   30.21S
$$

COZ035-036-038>040-262300-
...NORTHERN COLORADO FRONT RANGE...

CITY           SKY/WX    TMP DP  RH WIND       PRES   REMARKS
DENVER INTL AP PTSUNNY   58  21  24 VRB3      30.12F
DMNS CITY PARK   N/A     61  20  20 N6G13     30.11S
AURORA         PTSUNNY   58  21  23 NE3       30.13F
FRONT RANGE AP PTSUNNY  N/A N/A N/A MISG        N/A
ERIE MUNI ARPT MOSUNNY   62  19  18 CALM      30.11S
BOULDER MUN AP MOSUNNY   63  23  22 NW21      30.10S
CENTENNIAL     PTSUNNY   58  21  24 W9G16     30.12F
BROOMFIELD     PTSUNNY   59  21  23 N8        30.12F
FORT COLLINS   PTSUNNY   59  27  29 CALM      30.11F
LONGMONT       PTSUNNY   66  23  19 E6        30.11F
$$

COZ041-046-047-076>085-087-088-262300-
...PIKES PEAK/PALMER DIVIDE AND SOUTHERN FOOTHILLS...

CITY           SKY/WX    TMP DP  RH WIND       PRES   REMARKS
COLO. SPRINGS  PTSUNNY   55  18  23 S6        30.15F
A. F. ACADEMY  MOSUNNY   54  19  25 CALM      30.14F
ELLICOTT       MOSUNNY  N/A N/A N/A SW12      30.13F
FALCON         MOSUNNY   55  19  23 NW10G17   30.17F
FORT CARSON    MOSUNNY   57  21  24 S10       30.13F
LIMON          MOSUNNY   56  21  25 NW23      30.13F
MONUMENT HILL  SUNNY     52  21  30 NW14      30.15F
TRINIDAD       SUNNY     58  18  21 NE6       30.15F
$$

COZ042>045-048>051-090-091-262300-
...NORTHEAST COLORADO...

CITY           SKY/WX    TMP DP  RH WIND       PRES   REMARKS
GREELEY ARPT   PTSUNNY   61  25  25 W6        30.08F
AKRON          CLOUDY    55  24  30 N21G28    30.10F
BURLINGTON     CLOUDY    59  23  25 NW23G31   30.10F
WRAY           CLOUDY    58  25  27 N21G26    30.09S
STERLING       CLOUDY    59  28  31 N25       30.08S
HOLYOKE        CLOUDY    59  28  31 NW25G33   30.09S
FORT MORGAN    CLOUDY    59  21  23 N22G35    30.10F
$$

COZ086-089-092>099-262300-
...SOUTHEAST COLORADO...

CITY           SKY/WX    TMP DP  RH WIND       PRES   REMARKS
PUEBLO         SUNNY     60  19  20 SW6       30.11F
LA JUNTA       SUNNY     63  18  17 VRB3      30.11F
LAMAR          CLOUDY    65  22  19 N14       30.09F
SPRINGFIELD    NOT AVBL
$$


USA.gov is the U.S. government's official web portal to all federal, state and local government web resources and services.